Flag for France Weather past 2 weeks in Perpignan, France

Now
59 °F

Overcast.


Feels Like: 59 °F
Forecast: 56 / 64 °F
Wind: 2 mph from East

Location: Perpignan Airport

Current Time: Apr 26, 2015 at 5:15:38 AM

Latest Report: Apr 26, 2015 at 4:30 AM


Visibility: 4 mi

Pressure: 29.83 "Hg

Humidity: 94%

Dew point: 57 °F

Location of PerpignanLocation

Historic Weather in Perpignan — Graph

°F

Perpignan temperature yesterday

Maximum temperature yesterday: 68 °F (at 5:00 PM)
Minimum temperature yesterday: 59 °F (at 3:30 AM)
Average temperature yesterday: 63 °F

Past Weeks' High & Low Weather Summary

 TemperatureHumidityPressure
High77 °F (Apr 14, 4:30 PM)100% (Apr 11, 7:30 AM)30.42 "Hg (Apr 11, 7:30 AM)
Low45 °F (Apr 13, 6:30 AM)29% (Apr 22, 2:00 PM)29.83 "Hg (Apr 26, 3:30 AM)
Average61 °F70%30.11 "Hg
* Reported Apr 11 4:00 AM — Apr 26 4:00 AM, Perpignan, Weather by CustomWeather, © 2015

Note: Actual official high and low records may vary slightly from our data, if they occured in-between our weather recording intervals... More about our weather records

Advertising

Perpignan weather history for previous 24 hours

 ConditionsComfort  
Time TempWeatherWind HumidityBarometerVisibility
4:00 AM
Sun, Apr 26
59 °FFog.2 mph94%29.83 "Hg2 mi
3:30 AM59 °FFog.6 mph100%29.83 "Hg3 mi
3:00 AM59 °FFog.2 mph94%29.86 "Hg1 mi
2:30 AM59 °FFog.No wind100%29.86 "Hg1 mi
2:00 AM59 °FFog.1 mph94%29.89 "Hg2 mi
1:30 AM59 °FFog.3 mph94%29.89 "Hg2 mi
1:00 AM61 °FFog.2 mph94%29.89 "Hg3 mi
12:30 AM61 °FOvercast.1 mph94%29.89 "Hg4 mi
12:00 AM61 °FMostly cloudy.No wind94%29.92 "Hg4 mi
11:00 PM
Sat, Apr 25
61 °FFog.No wind94%29.92 "Hg3 mi
10:30 PM61 °FFog.No wind94%29.92 "Hg2 mi
10:00 PM61 °FLight rain. Fog.3 mph94%29.92 "Hg2 mi
9:30 PM61 °FLight rain. Fog.2 mph94%29.89 "Hg3 mi
9:00 PM61 °FLight rain. Broken clouds.No wind94%29.89 "Hg4 mi
8:30 PM63 °FLight rain. Fog.5 mph88%29.89 "Hg2 mi
8:00 PM63 °FLight rain. Mostly cloudy.5 mph88%29.89 "Hg5 mi
7:30 PM64 °FOvercast.3 mph83%29.89 "HgN/A
7:00 PM64 °FBroken clouds.2 mph78%29.86 "HgN/A
6:30 PM66 °FPassing clouds.5 mph78%29.86 "HgN/A
6:00 PM66 °FBroken clouds.6 mph73%29.86 "HgN/A
5:30 PM66 °FPartly sunny.5 mph78%29.89 "HgN/A
5:00 PM68 °FMostly cloudy.6 mph73%29.86 "HgN/A
4:30 PM66 °FMostly cloudy.7 mph78%29.86 "HgN/A
4:00 PM66 °FPartly sunny.7 mph73%29.89 "HgN/A
3:30 PM66 °FPartly sunny.7 mph78%29.89 "HgN/A
3:00 PM66 °FPartly sunny.6 mph78%29.89 "HgN/A
2:30 PM66 °FPartly sunny.7 mph78%29.89 "HgN/A
2:00 PM64 °FMostly cloudy.8 mph83%29.92 "HgN/A
1:30 PM64 °FMostly cloudy.8 mph83%29.92 "HgN/A
1:00 PM64 °FMore clouds than sun.10 mph78%29.92 "HgN/A
12:30 PM64 °FBroken clouds.10 mph83%29.92 "HgN/A
12:00 PM64 °FBroken clouds.12 mph78%29.92 "HgN/A
11:30 AM64 °FBroken clouds.13 mph83%29.92 "HgN/A
11:00 AM64 °FBroken clouds.6 mph83%29.92 "HgN/A
10:30 AM64 °FBroken clouds.3 mph83%29.92 "HgN/A
10:00 AM64 °FClear.2 mph78%29.92 "HgN/A
9:30 AM63 °FClear.3 mph83%29.92 "HgN/A
9:00 AM61 °FClear.No wind94%29.92 "HgN/A
8:30 AM59 °FMore clouds than sun.3 mph94%29.92 "Hg4 mi
8:00 AM59 °FFog.No wind94%29.92 "Hg2 mi
7:30 AM59 °FFog.No wind94%29.92 "Hg2 mi
7:00 AM59 °FFog.5 mph100%29.92 "Hg2 mi
6:30 AM59 °FFog.3 mph100%29.89 "Hg2 mi
6:00 AM59 °FLight rain. Fog.5 mph100%29.89 "Hg2 mi
5:30 AM59 °FLight rain. Fog.6 mph100%29.89 "Hg2 mi
5:00 AM59 °FFog.1 mph94%29.92 "Hg3 mi
Weather by CustomWeather, © 2015

See weather overviewHow to use our weather pages